• In United Kingdom
  • List of Countries
  • For 7 days
  • Water Temperature
  • Satellite Maps
  • Weather Map
  • Weather Widgets
  • user-avatar
    Login

    Hourly Weather Ischgl

    Today, 25 November, Saturday

    Time Temperature Precipitation Wind Pressure Humidity
    00:00 -7°C° 0 mm 3 mps 571 mmHg 89%
    01:00 -7°C° 0 mm 3 mps 570 mmHg 90%
    02:00 -7°C° 0 mm 3 mps 570 mmHg 89%
    03:00 -7°C° 0 mm 3 mps 569 mmHg 89%
    04:00 -7°C° 0 mm 3 mps 569 mmHg 89%
    05:00 -7°C° 0 mm 3 mps 569 mmHg 88%
    06:00 -6°C° 0 mm 3 mps 568 mmHg 88%
    07:00 -7°C° 0 mm 4 mps 568 mmHg 87%
    08:00 -5°C° 0.1 mm 3 mps 568 mmHg 87%
    09:00 -5°C° 0.1 mm 3 mps 568 mmHg 87%
    10:00 -4°C° 0.1 mm 3 mps 568 mmHg 87%
    11:00 -4°C° 0.8 mm 3 mps 569 mmHg 89%
    12:00 -4°C° 0.8 mm 3 mps 569 mmHg 92%
    13:00 -3°C° 0.8 mm 2 mps 569 mmHg 95%
    14:00 -4°C° 1.4 mm 2 mps 568 mmHg 95%
    15:00 -4°C° 1.4 mm 2 mps 568 mmHg 96%
    16:00 -5°C° 1.4 mm 2 mps 568 mmHg 96%
    17:00 -5°C° 0.8 mm 2 mps 568 mmHg 96%
    18:00 -6°C° 0.8 mm 2 mps 568 mmHg 96%
    19:00 -7°C° 0.8 mm 3 mps 568 mmHg 96%
    20:00 -8°C° 0.7 mm 3 mps 568 mmHg 96%
    21:00 -9°C° 0.7 mm 3 mps 568 mmHg 95%
    22:00 -10°C° 0.7 mm 4 mps 568 mmHg 95%
    23:00 -11°C° 0.4 mm 4 mps 568 mmHg 95%

    Tomorrow, 26 November, Sunday

    Time Temperature Precipitation Wind Pressure Humidity
    00:00 -11°C° 0.4 mm 4 mps 568 mmHg 95%
    01:00 -12°C° 0.4 mm 4 mps 568 mmHg 95%
    02:00 -14°C° 0.3 mm 4 mps 568 mmHg 95%
    03:00 -14°C° 0.3 mm 4 mps 568 mmHg 95%
    04:00 -14°C° 0.3 mm 4 mps 568 mmHg 95%
    05:00 -15°C° 0.2 mm 4 mps 569 mmHg 94%
    06:00 -15°C° 0.2 mm 4 mps 569 mmHg 94%
    07:00 -14°C° 0.2 mm 3 mps 569 mmHg 94%
    08:00 -14°C° 0.1 mm 3 mps 570 mmHg 91%
    09:00 -14°C° 0.1 mm 3 mps 570 mmHg 89%
    10:00 -14°C° 0.1 mm 3 mps 570 mmHg 86%
    11:00 -14°C° 0 mm 3 mps 571 mmHg 84%
    12:00 -14°C° 0 mm 3 mps 571 mmHg 81%
    13:00 -13°C° 0 mm 3 mps 571 mmHg 79%
    14:00 -14°C° 0 mm 3 mps 571 mmHg 82%
    15:00 -15°C° 0 mm 3 mps 570 mmHg 85%
    16:00 -16°C° 0 mm 3 mps 570 mmHg 89%
    17:00 -16°C° 0 mm 2 mps 570 mmHg 90%
    18:00 -16°C° 0 mm 2 mps 570 mmHg 92%
    19:00 -17°C° 0 mm 2 mps 570 mmHg 93%
    20:00 -18°C° 0 mm 2 mps 570 mmHg 93%
    21:00 -18°C° 0 mm 2 mps 571 mmHg 92%
    22:00 -18°C° 0 mm 2 mps 571 mmHg 92%
    23:00 -18°C° 0 mm 2 mps 571 mmHg 92%

    Day after tomorrow, 27 November, Monday

    Time Temperature Precipitation Wind Pressure Humidity
    00:00 -18°C° 0 mm 2 mps 571 mmHg 92%
    01:00 -18°C° 0 mm 2 mps 571 mmHg 92%
    02:00 -18°C° 0 mm 2 mps 570 mmHg 92%
    03:00 -19°C° 0 mm 2 mps 570 mmHg 92%
    04:00 -19°C° 0 mm 2 mps 570 mmHg 92%
    05:00 -19°C° 0 mm 2 mps 570 mmHg 92%
    06:00 -19°C° 0 mm 2 mps 570 mmHg 92%
    07:00 -19°C° 0 mm 2 mps 571 mmHg 91%
    08:00 -17°C° 0 mm 2 mps 571 mmHg 88%
    09:00 -14°C° 0 mm 1 mps 572 mmHg 86%
    10:00 -12°C° 0 mm 1 mps 573 mmHg 83%
    11:00 -11°C° 0 mm 1 mps 573 mmHg 80%
    12:00 -10°C° 0 mm 1 mps 573 mmHg 77%
    13:00 -9°C° 0 mm 1 mps 574 mmHg 73%
    14:00 -10°C° 0 mm 1 mps 573 mmHg 78%
    15:00 -11°C° 0 mm 1 mps 572 mmHg 82%
    16:00 -12°C° 0 mm 1 mps 571 mmHg 86%
    17:00 -13°C° 0 mm 1 mps 571 mmHg 84%
    18:00 -14°C° 0 mm 1 mps 570 mmHg 82%
    19:00 -17°C° 0 mm 2 mps 570 mmHg 80%
    20:00 -17°C° 0 mm 2 mps 570 mmHg 75%
    21:00 -16°C° 0 mm 2 mps 570 mmHg 69%
    22:00 -16°C° 0 mm 2 mps 570 mmHg 64%
    23:00 -16°C° 0 mm 2 mps 570 mmHg 62%

    28 November, Tuesday

    Time Temperature Precipitation Wind Pressure Humidity
    00:00 -16°C° 0 mm 2 mps 569 mmHg 60%
    01:00 -15°C° 0 mm 2 mps 569 mmHg 59%
    02:00 -15°C° 0 mm 2 mps 569 mmHg 59%
    03:00 -12°C° 0 mm 1 mps 569 mmHg 59%
    04:00 -12°C° 0 mm 1 mps 569 mmHg 59%
    05:00 -12°C° 0 mm 1 mps 569 mmHg 60%
    06:00 -12°C° 0 mm 1 mps 568 mmHg 60%
    07:00 -13°C° 0 mm 2 mps 568 mmHg 61%
    08:00 -12°C° 0 mm 2 mps 568 mmHg 63%
    09:00 -9°C° 0 mm 2 mps 569 mmHg 65%
    10:00 -8°C° 0 mm 2 mps 569 mmHg 66%
    11:00 -7°C° 0 mm 2 mps 569 mmHg 67%
    12:00 -6°C° 0 mm 2 mps 569 mmHg 68%
    13:00 -6°C° 0 mm 3 mps 568 mmHg 69%
    14:00 -6°C° 0 mm 2 mps 568 mmHg 72%
    15:00 -7°C° 0 mm 2 mps 567 mmHg 74%
    16:00 -8°C° 0 mm 2 mps 566 mmHg 76%
    17:00 -9°C° 0 mm 2 mps 565 mmHg 76%
    18:00 -10°C° 0 mm 2 mps 565 mmHg 76%
    19:00 -13°C° 0 mm 3 mps 564 mmHg 76%
    20:00 -13°C° 0 mm 3 mps 564 mmHg 76%
    21:00 -13°C° 0 mm 3 mps 564 mmHg 76%
    22:00 -14°C° 0 mm 3 mps 563 mmHg 76%
    23:00 -13°C° 0 mm 3 mps 563 mmHg 78%

    29 November, Wednesday

    Time Temperature Precipitation Wind Pressure Humidity
    00:00 -13°C° 0 mm 3 mps 563 mmHg 80%
    01:00 -13°C° 0 mm 3 mps 563 mmHg 82%
    02:00 -13°C° 0 mm 3 mps 563 mmHg 84%
    03:00 -13°C° 0 mm 3 mps 563 mmHg 85%
    04:00 -13°C° 0 mm 3 mps 563 mmHg 86%
    05:00 -13°C° 0.1 mm 3 mps 563 mmHg 87%
    06:00 -10°C° 0.1 mm 2 mps 563 mmHg 87%
    07:00 -10°C° 0.1 mm 2 mps 563 mmHg 88%
    08:00 -10°C° 0.1 mm 2 mps 563 mmHg 86%
    09:00 -9°C° 0.1 mm 2 mps 563 mmHg 85%
    10:00 -8°C° 0.1 mm 2 mps 564 mmHg 84%
    11:00 -7°C° 0.1 mm 2 mps 564 mmHg 83%
    12:00 -7°C° 0.1 mm 2 mps 563 mmHg 83%
    13:00 -6°C° 0.1 mm 2 mps 563 mmHg 82%
    14:00 -7°C° 0.4 mm 2 mps 563 mmHg 86%
    15:00 -7°C° 0.4 mm 2 mps 563 mmHg 90%
    16:00 -7°C° 0.4 mm 1 mps 562 mmHg 94%
    17:00 -7°C° 0.9 mm 1 mps 562 mmHg 95%
    18:00 -8°C° 0.9 mm 1 mps 562 mmHg 95%
    19:00 -8°C° 0.9 mm 1 mps 562 mmHg 96%
    20:00 -8°C° 1 mm 1 mps 561 mmHg 96%
    21:00 -8°C° 1 mm 1 mps 561 mmHg 96%
    22:00 -9°C° 1 mm 1 mps 561 mmHg 96%
    23:00 -9°C° 0.8 mm 1 mps 561 mmHg 96%

    30 November, Thursday

    Time Temperature Precipitation Wind Pressure Humidity
    00:00 -10°C° 0.8 mm 2 mps 560 mmHg 96%
    01:00 -10°C° 0.8 mm 2 mps 560 mmHg 96%
    02:00 -12°C° 0.5 mm 2 mps 560 mmHg 96%
    03:00 -12°C° 0.5 mm 2 mps 559 mmHg 96%
    04:00 -13°C° 0.5 mm 3 mps 559 mmHg 96%
    05:00 -14°C° 0.3 mm 3 mps 559 mmHg 95%
    06:00 -14°C° 0.3 mm 3 mps 559 mmHg 95%
    07:00 -14°C° 0.3 mm 3 mps 559 mmHg 95%
    08:00 -14°C° 0.2 mm 3 mps 560 mmHg 94%
    09:00 -14°C° 0.2 mm 3 mps 560 mmHg 93%
    10:00 -13°C° 0.2 mm 3 mps 561 mmHg 92%
    11:00 -13°C° 0.1 mm 3 mps 561 mmHg 89%
    12:00 -13°C° 0.1 mm 3 mps 561 mmHg 87%
    13:00 -13°C° 0.1 mm 3 mps 561 mmHg 85%
    14:00 -13°C° 0.1 mm 3 mps 561 mmHg 87%
    15:00 -13°C° 0.1 mm 2 mps 561 mmHg 89%
    16:00 -14°C° 0.1 mm 2 mps 561 mmHg 91%
    17:00 -15°C° 0 mm 2 mps 560 mmHg 92%
    18:00 -17°C° 0 mm 2 mps 560 mmHg 93%
    19:00 -18°C° 0 mm 2 mps 560 mmHg 94%
    20:00 -18°C° 0 mm 2 mps 560 mmHg 94%
    21:00 -19°C° 0 mm 2 mps 560 mmHg 94%
    22:00 -19°C° 0 mm 2 mps 560 mmHg 93%
    23:00 -19°C° 0 mm 2 mps 560 mmHg 93%
    Show more